JBU2097 KATL-KFLL

Flight info

Callsign JBU2097
Flight time N/A
Altitude 4000
Route SMLTZ3 WALET ZPLEN TEEKY4
Aircraft A320/M-SDE3FGHIRWY/LB1

Departure

Time 2026-05-05 16:31
Airport Hartsfield Jackson Atlanta International Airport (KATL)

Arrival

Time N/A
Airport Fort Lauderdale Hollywood International Airport (KFLL)
Time Latitude Longitude Altitude Speed Heading
2026-05-05 15:40 33.64378 -84.44195 1036 ft 0 kts 270°
2026-05-05 15:52 33.64378 -84.44194 1036 ft 0 kts 270°
2026-05-05 16:09 33.64378 -84.44193 1035 ft 0 kts 270°
2026-05-05 16:17 33.64378 -84.44165 1035 ft 4 kts 274°
2026-05-05 16:17 33.64373 -84.44135 1035 ft 4 kts 305°
2026-05-05 16:18 33.64352 -84.44118 1035 ft 3 kts 358°
2026-05-05 16:20 33.64354 -84.44116 1035 ft 0 kts 19°
2026-05-05 16:21 33.64346 -84.44104 1035 ft 4 kts 143°
2026-05-05 16:22 33.64068 -84.44100 1035 ft 18 kts 183°
2026-05-05 16:22 33.63796 -84.44114 1036 ft 20 kts 182°
2026-05-05 16:23 33.63663 -84.43961 1036 ft 19 kts 89°
2026-05-05 16:23 33.63666 -84.43793 1036 ft 21 kts 90°
2026-05-05 16:23 33.63664 -84.43395 1035 ft 26 kts 90°
2026-05-05 16:24 33.63665 -84.43186 1035 ft 26 kts 90°
2026-05-05 16:24 33.63665 -84.42992 1035 ft 23 kts 90°
2026-05-05 16:24 33.63656 -84.42615 1036 ft 22 kts 90°
2026-05-05 16:25 33.63656 -84.42433 1036 ft 23 kts 90°
2026-05-05 16:25 33.63602 -84.42093 1036 ft 22 kts 118°
2026-05-05 16:25 33.63583 -84.41906 1035 ft 24 kts 90°
2026-05-05 16:26 33.63582 -84.41470 1034 ft 23 kts 90°
2026-05-05 16:26 33.63584 -84.41119 1035 ft 15 kts 91°
2026-05-05 16:27 33.63582 -84.40991 1035 ft 12 kts 91°
2026-05-05 16:27 33.63572 -84.40944 1035 ft 0 kts 117°
2026-05-05 16:29 33.63565 -84.40932 1035 ft 5 kts 123°
2026-05-05 16:30 33.63512 -84.40914 1036 ft 11 kts 178°
2026-05-05 16:30 33.63471 -84.40969 1036 ft 13 kts 269°
2026-05-05 16:30 33.63470 -84.41262 1035 ft 68 kts 270°
2026-05-05 16:30 33.63470 -84.42078 1036 ft 125 kts 270°
2026-05-05 16:31 33.63479 -84.43280 1181 ft 154 kts 268°
2026-05-05 16:31 33.63524 -84.44666 1680 ft 182 kts 270°
2026-05-05 16:31 33.63563 -84.46264 2364 ft 201 kts 268°
2026-05-05 16:31 33.63608 -84.47954 3052 ft 201 kts 268°
2026-05-05 16:32 33.63650 -84.49655 3573 ft 213 kts 266°
2026-05-05 16:32 33.63630 -84.51428 3770 ft 205 kts 264°
2026-05-05 16:32 33.63453 -84.53017 3881 ft 180 kts 249°
2026-05-05 16:32 33.62850 -84.54136 3962 ft 146 kts 206°
2026-05-05 16:33 33.61889 -84.54367 3574 ft 156 kts 170°
2026-05-05 16:33 33.60860 -84.53671 3840 ft 180 kts 136°
2026-05-05 16:33 33.60203 -84.52257 4203 ft 206 kts 119°
2026-05-05 16:33 33.59862 -84.50505 4407 ft 230 kts 96°
2026-05-05 16:34 33.59897 -84.48582 4234 ft 227 kts 91°
2026-05-05 16:34 33.59999 -84.46676 4096 ft 230 kts 90°
2026-05-05 16:34 33.60084 -84.44748 3914 ft 231 kts 92°
2026-05-05 16:34 33.60129 -84.42786 3653 ft 240 kts 92°
2026-05-05 16:35 33.60023 -84.40825 3562 ft 237 kts 100°
2026-05-05 16:35 33.59833 -84.38896 3677 ft 226 kts 99°
2026-05-05 16:35 33.59794 -84.37073 3876 ft 214 kts 84°
2026-05-05 16:35 33.60427 -84.35440 3549 ft 221 kts 51°
2026-05-05 16:36 33.61714 -84.34553 3408 ft 211 kts
2026-05-05 16:36 33.62982 -84.35062 3160 ft 188 kts 306°
2026-05-05 16:36 33.63289 -84.36504 2583 ft 181 kts 262°
2026-05-05 16:36 33.63188 -84.37993 2148 ft 176 kts 264°
2026-05-05 16:37 33.63194 -84.39452 1763 ft 171 kts 265°
2026-05-05 16:37 33.63183 -84.40812 1380 ft 156 kts 265°
2026-05-05 16:37 33.63182 -84.42061 1063 ft 142 kts 265°
2026-05-05 16:37 33.63178 -84.43089 1038 ft 100 kts 271°
2026-05-05 16:38 33.63180 -84.43716 1036 ft 50 kts 270°
2026-05-05 16:38 33.63202 -84.44097 1034 ft 44 kts 286°
2026-05-05 16:38 33.63334 -84.44387 1035 ft 37 kts 296°
2026-05-05 16:38 33.63362 -84.44645 1035 ft 24 kts 269°
2026-05-05 16:39 33.63403 -84.44776 1036 ft 17 kts 341°
2026-05-05 16:39 33.63529 -84.44783 1035 ft 19 kts
2026-05-05 16:39 33.63653 -84.44732 1035 ft 20 kts 60°
2026-05-05 16:39 33.63665 -84.44564 1036 ft 22 kts 90°
2026-05-05 16:40 33.63665 -84.44371 1036 ft 24 kts 90°
2026-05-05 16:40 33.63666 -84.44182 1036 ft 18 kts 85°
2026-05-05 16:40 33.63761 -84.44116 1036 ft 18 kts
2026-05-05 16:40 33.63893 -84.44116 1035 ft 20 kts 359°
2026-05-05 16:41 33.64039 -84.44117 1035 ft 22 kts
2026-05-05 16:41 33.64159 -84.44117 1035 ft 12 kts 360°
2026-05-05 16:41 33.64219 -84.44117 1035 ft 0 kts 359°
2026-05-05 16:43 33.64231 -84.44117 1035 ft 2 kts 359°
2026-05-05 16:43 33.64256 -84.44118 1035 ft 3 kts 359°
2026-05-05 16:43 33.64272 -84.44118 1035 ft 4 kts 359°
2026-05-05 16:43 33.64313 -84.44123 1035 ft 7 kts 337°
2026-05-05 16:44 33.64339 -84.44173 1035 ft 5 kts 287°
2026-05-05 16:44 33.64345 -84.44195 1035 ft 0 kts 289°